Regional Weather Roundup
Issued by NWS

Home | Current Version | Previous Version | Text Only | Print | Product List | Glossary On
Versions: 1 2 3 4 5 6 7 8 9 10 11 12 13 14 15 16 17 18 19 20 21 22 23 24 25 26 27 28 29 30 31 32 33 34 35 36 37 38 39 40 41 42 43 44 45 46 47 48 49 50
000
ASUS44 KOUN 181010
RWROK

WEATHER ROUNDUP FOR OKLAHOMA
NATIONAL WEATHER SERVICE NORMAN OK
500 AM CDT WED OCT 18 2017

NOTE: "FAIR" INDICATES FEW OR NO CLOUDS BELOW 12,000 FEET WITH NO
      SIGNIFICANT WEATHER AND/OR OBSTRUCTIONS TO VISIBILITY.

OKZ001>007-009>012-014-015-017-181100-
NORTHWEST OKLAHOMA AND THE PANHANDLE

CITY           SKY/WX    TMP DP  RH WIND       PRES   REMARKS
GAGE           CLEAR     50  40  68 S9        30.00F
GUYMON         CLOUDY    44  40  85 S7        29.99F
ENID/WOODRING  CLEAR     48  45  87 CALM      30.02S
$$

OKZ016-021>023-033>039-044-045-181100-
SOUTHWEST OKLAHOMA

CITY           SKY/WX    TMP DP  RH WIND       PRES   REMARKS
LAWTON/REGL    CLEAR     45  44  97 CALM      30.08F
LAWTON/FT SILL CLEAR     49  45  86 CALM      30.07S
FREDERICK      CLEAR     48  44  86 SE8       30.03F
CLINTON        CLEAR     53  43  68 S17       30.04F
HOBART         CLEAR     54  44  69 S12       30.05F
ALTUS AFB      CLEAR     46  42  86 E7        30.05F
$$

OKZ018>020-024>031-181100-
CENTRAL OKLAHOMA

CITY           SKY/WX    TMP DP  RH WIND       PRES   REMARKS
OKLAHOMA CITY  CLEAR     48  43  82 S9        30.07F
OKC/WILEY POST CLEAR     54  43  66 S17       30.06F
OKC/TINKER AFB CLEAR     53  43  69 S12       30.07F
STILLWATER     CLEAR     51  43  74 SE8       30.06F
GUTHRIE        CLEAR     57  42  57 S15G22    30.05S
$$

OKZ008-013-054>072-181100-
NORTHEAST OKLAHOMA

CITY           SKY/WX    TMP DP  RH WIND       PRES   REMARKS
TULSA          CLEAR     53  47  79 S8        30.09S
TULSA/JONES    CLEAR     47  43  86 VRB3      30.11S
PONCA CITY     CLEAR     56  42  59 S14       30.05S
BARTLESVILLE   CLEAR     44  42  93 CALM      30.10S
MUSKOGEE       CLEAR     48  45  89 S7        30.13F
$$

OKZ032-040>043-046>053-073>077-181100-
SOUTH CENTRAL/SOUTHEAST OKLAHOMA

CITY           SKY/WX    TMP DP  RH WIND       PRES   REMARKS
ARDMORE/DWNTWN CLEAR     50  43  76 CALM      30.11F
MCALESTER      PTCLDY    51  42  71 CALM      30.13F
$$




USA.gov is the U.S. government's official web portal to all federal, state and local government web resources and services.